Time,TemperatureF,DewpointF,PressureIn,WindDirection,WindDirectionDegrees,WindSpeedMPH,WindSpeedGustMPH,Humidity,HourlyPrecipIn,Conditions,Clouds,dailyrainin,SoftwareType,DateUTC
2013-05-15 00:00:00,33.7,30.5,29.95,ENE,76,0.0,0.0,88,0.00,,,0.00,Wunderground v.1.13,2013-05-15 04:00:00,
2013-05-15 00:30:00,32.9,30.6,29.93,ENE,76,0.0,0.0,91,0.00,,,0.00,Wunderground v.1.13,2013-05-15 04:30:00,
2013-05-15 01:00:00,32.8,30.7,29.93,ENE,76,0.0,0.0,92,0.00,,,0.00,Wunderground v.1.13,2013-05-15 05:00:00,
2013-05-15 01:30:00,32.9,31.1,29.93,ENE,76,0.0,0.0,93,0.00,,,0.00,Wunderground v.1.13,2013-05-15 05:30:00,
2013-05-15 02:00:00,33.6,31.5,29.92,ENE,76,0.0,0.0,92,0.00,,,0.00,Wunderground v.1.13,2013-05-15 06:00:00,
2013-05-15 02:30:00,34.8,30.8,29.92,ENE,75,0.0,0.0,85,0.00,,,0.00,Wunderground v.1.13,2013-05-15 06:30:00,
2013-05-15 03:30:00,34.1,30.4,29.91,NE,52,1.0,1.0,86,0.00,,,0.00,Wunderground v.1.13,2013-05-15 07:30:00,
2013-05-15 04:00:00,33.7,30.0,29.91,East,84,0.0,0.0,86,0.00,,,0.00,Wunderground v.1.13,2013-05-15 08:00:00,
2013-05-15 04:30:00,32.3,29.4,29.90,East,83,0.0,0.0,89,0.00,,,0.00,Wunderground v.1.13,2013-05-15 08:30:00,
2013-05-15 05:00:00,30.6,28.6,29.88,East,83,0.0,0.0,92,0.00,,,0.00,Wunderground v.1.13,2013-05-15 09:00:00,
2013-05-15 05:30:00,29.9,28.4,29.88,East,83,0.0,0.0,94,0.00,,,0.00,Wunderground v.1.13,2013-05-15 09:30:00,
2013-05-15 06:00:00,31.5,29.4,29.88,East,83,0.0,0.0,92,0.00,,,0.00,Wunderground v.1.13,2013-05-15 10:00:00,
2013-05-15 06:30:00,34.0,30.5,29.89,North,5,0.0,0.0,87,0.00,,,0.00,Wunderground v.1.13,2013-05-15 10:30:00,
2013-05-15 07:00:00,37.2,31.9,29.89,NE,53,1.0,1.0,81,0.00,,,0.00,Wunderground v.1.13,2013-05-15 11:00:00,
2013-05-15 07:30:00,39.7,32.8,29.89,East,93,2.0,2.0,76,0.00,,,0.00,Wunderground v.1.13,2013-05-15 11:30:00,
2013-05-15 08:00:00,43.1,34.0,29.89,ENE,67,2.0,4.0,70,0.00,,,0.00,Wunderground v.1.13,2013-05-15 12:00:00,
2013-05-15 08:30:00,45.9,34.4,29.88,East,91,4.0,7.0,64,0.00,,,0.00,Wunderground v.1.13,2013-05-15 12:30:00,
2013-05-15 09:00:00,48.3,35.0,29.88,ESE,108,3.0,7.0,60,0.00,,,0.00,Wunderground v.1.13,2013-05-15 13:00:00,
2013-05-15 09:30:00,50.2,35.5,29.87,East,100,4.0,4.0,57,0.00,,,0.00,Wunderground v.1.13,2013-05-15 13:30:00,
2013-05-15 10:00:00,51.1,34.1,29.86,South,180,4.0,4.0,52,0.00,,,0.00,Wunderground v.1.13,2013-05-15 14:00:00,
2013-05-15 11:00:00,53.4,33.1,29.85,SE,132,4.0,4.0,46,0.00,,,0.00,Wunderground v.1.13,2013-05-15 15:00:00,
2013-05-15 11:30:00,54.9,33.4,29.84,NNW,328,3.0,3.0,44,0.00,,,0.00,Wunderground v.1.13,2013-05-15 15:30:00,
2013-05-15 12:00:00,56.0,32.0,29.82,ENE,78,3.0,3.0,40,0.00,,,0.00,Wunderground v.1.13,2013-05-15 16:00:00,
2013-05-15 13:00:00,57.5,33.3,29.80,ENE,63,3.0,3.0,40,0.00,,,0.00,Wunderground v.1.13,2013-05-15 17:00:00,
2013-05-15 14:30:00,61.8,30.8,29.76,East,80,2.0,7.0,31,0.00,,,0.00,Wunderground v.1.13,2013-05-15 18:30:00,
2013-05-15 15:00:00,62.2,29.5,29.75,East,91,2.0,10.0,29,0.00,,,0.00,Wunderground v.1.13,2013-05-15 19:00:00,
2013-05-15 15:30:00,62.3,31.3,29.74,North,10,2.0,2.0,31,0.00,,,0.00,Wunderground v.1.13,2013-05-15 19:30:00,
2013-05-15 16:00:00,64.1,29.4,29.73,WNW,293,2.0,11.0,27,0.00,,,0.00,Wunderground v.1.13,2013-05-15 20:00:00,
2013-05-15 16:30:00,62.8,27.4,29.72,NE,53,3.0,3.0,26,0.00,,,0.00,Wunderground v.1.13,2013-05-15 20:30:00,
2013-05-15 17:00:00,63.2,27.7,29.71,NNW,344,1.0,4.0,26,0.00,,,0.00,Wunderground v.1.13,2013-05-15 21:00:00,
2013-05-15 17:30:00,62.2,30.4,29.70,NNW,331,1.0,5.0,30,0.00,,,0.00,Wunderground v.1.13,2013-05-15 21:30:00,
2013-05-15 18:00:00,61.3,29.6,29.69,NNW,338,2.0,3.0,30,0.00,,,0.00,Wunderground v.1.13,2013-05-15 22:00:00,
2013-05-15 18:30:00,60.0,29.2,29.69,NNW,331,3.0,3.0,31,0.00,,,0.00,Wunderground v.1.13,2013-05-15 22:30:00,
2013-05-15 19:00:00,58.7,29.6,29.70,NW,325,0.0,0.0,33,0.00,,,0.00,Wunderground v.1.13,2013-05-15 23:00:00,
2013-05-15 20:00:00,54.0,33.7,29.68,NW,325,0.0,0.0,46,0.00,,,0.00,Wunderground v.1.13,2013-05-16 00:00:00,
2013-05-15 21:30:00,51.1,34.5,29.69,North,349,0.0,2.0,53,0.00,,,0.00,Wunderground v.1.13,2013-05-16 01:30:00,
2013-05-15 22:00:00,53.3,31.9,29.67,NNW,348,2.0,4.0,44,0.00,,,0.00,Wunderground v.1.13,2013-05-16 02:00:00,
2013-05-15 22:30:00,52.9,30.4,29.67,ENE,68,5.0,5.0,42,0.00,,,0.00,Wunderground v.1.13,2013-05-16 02:30:00,
2013-05-15 23:00:00,51.9,30.6,29.66,NNE,15,4.0,9.0,44,0.00,,,0.00,Wunderground v.1.13,2013-05-16 03:00:00,
2013-05-15 23:30:00,51.2,31.1,29.65,NNW,338,3.0,13.0,46,0.00,,,0.00,Wunderground v.1.13,2013-05-16 03:30:00,